Location: Roc des P�zouls
(43.9667°N, 3.5500°E)
Time: 21:03:40
(UTC+00:00)

Cosmos 158 Rocket - Pass Details

Date: 14 November 2019
Orbit: 699 x 792 km, 74.0° (Epoch: 13 December)

Event Time Altitude Azimuth Distance (km) Brightness Sun altitude
Exits shadow 04:59:50 10° 339° (NNW) 2,234 6.1 -17.8°
Reaches altitude 10° 04:59:53 10° 339° (NNW) 2,215 6.1 -17.8°
Maximum altitude 05:04:53 87° 252° (WSW) 716 3.8 -16.9°
Drops below altitude 10° 05:09:46 10° 162° (SSE) 2,161 6.7 -16.1°
Sets 05:12:03 0° 162° (SSE) 3,071 7.5 -15.7°
